Regional Weather Roundup
Issued by NWS Midland/Odessa, TX

Home | Current Version | Previous Version | Text Only | Print | Product List | Glossary On
Versions: 1 2 3 4 5 6 7 8 9 10 11 12 13 14 15 16 17 18 19 20 21 22 23 24 25 26 27 28 29 30 31 32 33 34 35 36 37 38 39 40 41 42 43 44 45 46 47 48 49 50
000
ASUS44 KMAF 110010
RWRMAF
MIDLAND AREA WEATHER ROUNDUP
NATIONAL WEATHER SERVICE MIDLAND TX
600 PM CST SAT DEC 10 2016

...IN SOUTHWEST TEXAS AND SOUTHEAST NEW MEXICO...

CITY           SKY/WX    TMP DP  RH WIND       PRES   REMARKS
ALPINE         CLEAR     56  39  51 S8        30.18S
ANDREWS        FAIR      52  40  63 S8        30.04S
ARTESIA        CLOUDY    55  37  50 S10       29.98F
BIG SPRING     CLEAR     53  41  62 S15       30.07F
CARLSBAD       CLOUDY    62  37  39 W14       29.99F
DRYDEN           N/A     51  42  71 SE8       30.13F
FORT STOCKTON  NOT AVBL
GUAD PASS      CLOUDY    52  40  63 W28       30.09F
HOBBS          CLEAR     54  41  62 S9        30.03S
MARFA          CLEAR     55  39  54 S13       30.16S
MIDLAND AIRPK  CLEAR     55  41  58 S13       30.05F
MIDLAND INTL   CLEAR     54  40  59 S13       30.04F
ODESSA         CLEAR     56  40  55 S9        30.04F
PECOS          CLEAR     55  44  64 E7        30.03F
PRESIDIO       FAIR      58  41  53 SE5       30.12S
SEMINOLE       CLEAR     53  39  58 SW8       30.04S
SNYDER         CLEAR     53  41  64 S17       30.05F
WINK           CLOUDY    54  42  64 SE8       30.02F
$$
...OTHER STATIONS IN TEXAS...

CITY           SKY/WX    TMP DP  RH WIND       PRES   REMARKS
ABILENE        CLOUDY    55  46  71 S18G28    30.09F
AMARILLO       CLOUDY    57  34  41 S18       29.88F
AUSTIN         CLOUDY    54  46  74 SE7       30.25F
BROWNSVILLE    LGT RAIN  54  50  86 N7        30.23F
CORPUS CHRISTI CLOUDY    59  56  89 N3        30.22F
DALLAS FTW     CLOUDY    48  30  49 S14       30.21F
DEL RIO        CLOUDY    48  41  76 E14       30.20F
EL PASO        PTCLDY    56  37  49 S8        30.08F
HOUSTON INT    CLOUDY    52  32  46 SE7       30.31F
LUBBOCK        CLOUDY    53  40  61 S15       29.98F
SAN ANGELO     CLOUDY    53  46  77 S22G31    30.12F
SAN ANTONIO    DRIZZLE   47  44  90 CALM      30.25F FOG
WACO           CLOUDY    49  37  63 SE10      30.26F
WICHITA FALLS  NOT AVBL
$$
...OTHER LOCATIONS IN NEW MEXICO...

CITY           SKY/WX    TMP DP  RH WIND       PRES   REMARKS
ALAMAGORDO     NOT AVBL
ALBUQUERQUE    PTCLDY    49  30  48 SW6       30.05F
CANNON AFB     CLOUDY    53  27  36 SW10      29.95S
CLOVIS         CLOUDY    54  27  35 SW12      29.95S
HOLLOMAN AFB   CLOUDY    54  34  47 S7        30.12F
ROSWELL        CLOUDY    48  34  58 N3        29.98F
RUIDOSO        CLOUDY    48  19  32 SW7       30.11F
SANTA FE       CLEAR     42  24  49 SW6       30.03F WCI  38
TRUTH OR CONSE CLEAR     54  33  45 S7        30.06F
TUCUMCARI      CLOUDY    61  27  27 S13       29.87S
$$



USA.gov is the U.S. government's official web portal to all federal, state and local government web resources and services.